Zurück zum Katalog

STARLINK-32151

AktivKommunikationVLEO
NORAD 60299·PAYLOAD·🇺🇸 United States

Gestartet Jul 28, 2024 von Cape Canaveral Space Force Station

Loading…

Nächste Überflüge (nächste 24 Stunden)

TLE

AktuellSource: CelesTrak SupGP

Epoche: Sep 15, 2026, 02:46 UTC

1 60299C 24132X   26258.11576389 -.00043910  00000+0 -12987-2 0  2586
2 60299  53.1586 222.9970 0001184  82.1033 317.2706 15.34379992    17

Verfolge STARLINK-32151 in Echtzeit mit AllMySat

Download on the App Store